Regional Weather Roundup
Issued by NWS

Home | Current Version | Previous Version | Text Only | Print | Product List | Glossary Off
Versions: 1 2 3 4 5 6 7 8 9 10 11 12 13 14 15 16 17 18 19 20 21 22 23 24 25 26 27 28 29 30 31 32 33 34 35 36 37 38 39 40 41 42 43 44 45 46 47 48 49 50

000
ASUS43 KLMK 202310
RWRKY
KENTUCKY REGIONAL WEATHER ROUNDUP
NATIONAL WEATHER SERVICE LOUISVILLE KY
600 PM EST MON FEB 20 2017

NOTE "FAIR" INDICATES FEW OR NO CLOUDS BELOW 12,000 FEET
WITH NO SIGNIFICANT WEATHER AND/OR OBSTRUCTIONS TO VISIBILITY.

KYZ001>023-026-027-061>063-070>075-210000-
WESTERN AND SOUTH CENTRAL KENTUCKY

CITY           SKY/WX    TMP DP  RH WIND       PRES   REMARKS
PADUCAH        MOCLDY    69  51  52 SE6       30.00S
HENDERSON      PTCLDY    63  48  59 SE3       30.01S
OWENSBORO      CLOUDY    68  50  52 SE6       30.04S
HOPKINSVILLE   PTCLDY    70  49  46 SE3       30.03S
BOWLING GREEN  CLOUDY    70  44  39 S5        30.06S
GLASGOW        CLOUDY    68  45  43 CALM      30.07F
$$

KYZ024-025-028>034-038-045-046-053-210000-
NORTH CENTRAL KENTUCKY

CITY           SKY/WX    TMP DP  RH WIND       PRES   REMARKS
LOUISVILLE/SDF MOCLDY    70  43  37 SE6       30.06F
LOUISVILLE/LOU CLOUDY    71  46  40 SE3       30.07S
FORT KNOX      CLEAR     68  45  42 SE3       30.05F
$$

KYZ035>037-039>044-047>052-055>060-089>105-210000-
NORTHEAST KENTUCKY

CITY           SKY/WX    TMP DP  RH WIND       PRES   REMARKS
LEXINGTON      PTCLDY    68  38  33 SE7       30.12R
COVINGTON      CLOUDY    62  48  60 E8        30.11S
FRANKFORT      PTCLDY    66  45  46 E8        30.09S
$$

KYZ054-064>069-076>088-106>120-210000-
SOUTHEAST KENTUCKY

CITY           SKY/WX    TMP DP  RH WIND       PRES   REMARKS
JACKSON        CLEAR     66  35  31 MISG      30.12F
LONDON         CLOUDY    68  33  27 CALM      30.12R
SOMERSET       PTCLDY    64  37  36 CALM      30.12S
MIDDLESBORO    PTCLDY    66  43  42 CALM      30.12S
MONTICELLO     PTCLDY    62  47  57 NW7       30.11S
$$





USA.gov is the U.S. government's official web portal to all federal, state and local government web resources and services.